[[{"header":{"parameterUnit":"m.s-1","parameterCategory":1,"la1":30.2991,"la2":30.254,"lo1":-89.0895,"lo2":-89.0444,"dy":0.0017,"dx":0.0017,"nx":28,"ny":28,"refTime":"2024-03-11T09:00:00:Z","depth":0,"parameterNumber":2,"parameterNumberName":"U-component_of_WINDS"},"data":[0,0,0,0,0,0,0,0,0,0,0,0,0,0,0,0,0,0,0,0,0,0,0,0,0,0,0,0,0,0,0,0,0,0,0,0,0,0,0,0,0,0,0,0,0,0,0,0,0,0,0,0,0,0,0,0,0,0,-0.1791,-0.1791,0,-0.1765,-0.1765,-0.1765,-0.1745,-0.1745,-0.1745,-0.1745,-0.1719,-0.1718,-0.1718,0,0,0,0,0,0,0,0,0,0,0,0,0,-0.1826,-0.1825,-0.1791,-0.1791,-0.1791,-0.1765,-0.1765,-0.1765,-0.1745,-0.1745,-0.1745,-0.1745,-0.1719,-0.1718,-0.1718,0,0,0,0,0,0,0,0,0,0,0,0,0,-0.1806,-0.1825,-0.1791,-0.1778,-0.1776,-0.1765,-0.1765,-0.1765,-0.1745,-0.1745,-0.1745,-0.1745,-0.1719,-0.1718,-0.1718,-0.1718,0,0,-0.1715,-0.1715,0,0,0,0,0,0,0,0,-0.1807,-0.1805,-0.178,-0.1779,-0.1777,-0.1758,-0.1768,-0.1749,-0.1745,-0.1757,-0.1745,-0.1744,-0.1732,-0.173,-0.1726,-0.1717,-0.1716,-0.1715,-0.1715,-0.1714,-0.1714,0,0,0,0,0,0,0,-0.1809,-0.1806,-0.1781,-0.178,-0.1778,-0.1774,-0.1771,-0.1764,-0.1747,-0.1756,-0.1755,-0.1752,-0.1731,-0.1727,-0.1725,-0.1715,-0.1715,-0.1714,-0.1714,-0.1714,-0.1707,-0.1707,0,0,0,0,0,0,-0.1812,-0.1807,-0.1782,-0.178,-0.1792,-0.1773,-0.177,-0.1765,-0.1747,-0.1744,-0.1752,-0.1751,-0.1728,-0.1726,-0.1724,-0.1724,-0.1714,-0.1714,-0.1713,-0.1706,-0.1707,-0.1707,0,0,0,0,0,0,-0.1813,-0.181,-0.1783,-0.1793,-0.179,-0.1773,-0.1767,-0.1764,-0.176,-0.1743,-0.174,-0.1751,-0.1728,-0.1725,-0.172,-0.1723,-0.1713,-0.1713,-0.1706,-0.1706,-0.1707,-0.1724,0,0,0,0,0,0,-0.1814,-0.181,-0.181,-0.1794,-0.1789,-0.1779,-0.1767,-0.1764,-0.1758,-0.1757,-0.1741,-0.1738,-0.1728,-0.1721,-0.1719,-0.1722,-0.1712,-0.1706,-0.1706,-0.1707,-0.1723,-0.1725,-0.1727,0,0,0,0,0,-0.1815,-0.1816,-0.181,-0.1807,-0.1788,-0.1779,-0.1776,-0.1764,-0.1759,-0.1758,-0.1748,-0.1739,-0.1723,-0.1721,-0.1718,-0.1721,-0.1705,-0.1706,-0.1707,-0.1723,-0.1725,-0.1727,0,0,0,0,0,0,-0.1833,-0.1813,-0.1807,-0.1802,-0.1792,-0.1776,-0.1775,-0.1766,-0.1758,-0.1757,-0.1742,-0.1739,-0.1735,-0.1727,-0.1725,-0.1721,-0.1713,-0.1713,-0.1726,-0.1728,-0.173,-0.1732,-0.1711,0,0,0,0,0,-0.1836,-0.183,-0.1813,-0.1811,-0.1806,-0.1792,-0.1787,-0.1778,-0.1768,-0.1763,-0.1753,-0.1743,-0.1736,-0.1732,-0.1724,-0.1722,-0.1719,-0.1723,-0.1725,-0.1726,-0.1727,-0.1726,-0.1728,-0.1709,-0.1709,-0.1709,0,0,-0.1843,-0.1832,-0.1829,-0.1814,-0.1806,-0.18,-0.1788,-0.1782,-0.1778,-0.1763,-0.1757,-0.1749,-0.1737,-0.1734,-0.1732,-0.1727,-0.1731,-0.1727,-0.1728,-0.1728,-0.1727,-0.1729,-0.173,-0.171,-0.1709,-0.1709,0,0,-0.1853,-0.1843,-0.1841,-0.1832,-0.182,-0.181,-0.181,-0.1794,-0.1788,-0.1783,-0.1771,-0.1766,-0.1754,-0.1746,-0.1741,-0.1749,-0.1741,-0.1747,-0.1757,-0.1756,-0.1758,-0.1759,-0.1763,-0.1764,-0.1748,-0.1748,-0.1748,0,-0.1863,-0.1854,-0.184,-0.1836,-0.183,-0.1816,-0.1813,-0.1806,-0.1792,-0.1788,-0.1784,-0.1769,-0.176,-0.1755,-0.1757,-0.1753,-0.1753,-0.1749,-0.1759,-0.176,-0.1761,-0.1764,-0.1765,-0.1749,-0.1749,-0.1748,-0.1748,0,-0.1868,-0.1861,-0.1861,-0.1847,-0.1842,-0.1838,-0.1825,-0.1821,-0.1813,-0.1804,-0.1799,-0.1788,-0.1778,-0.1776,-0.1768,-0.1771,-0.1768,-0.1761,-0.1753,-0.1764,-0.1767,-0.1768,-0.175,-0.175,-0.1749,-0.1749,0,0,-0.1887,-0.1867,-0.1867,-0.1861,-0.1847,-0.1842,-0.1838,-0.1829,-0.1826,-0.1817,-0.1814,-0.1805,-0.1799,-0.1793,-0.1784,-0.1783,-0.1792,-0.1776,-0.1776,-0.178,-0.1795,-0.1801,-0.1802,-0.1786,-0.1786,-0.1786,-0.1796,0,-0.1895,-0.1887,-0.1875,-0.1872,-0.1867,-0.1853,-0.185,-0.1841,-0.1833,-0.1828,-0.1819,-0.1813,-0.1805,-0.1801,-0.18,-0.1791,-0.1794,-0.179,-0.1784,-0.1784,-0.1787,-0.1804,-0.1809,-0.1819,-0.1797,-0.1797,-0.1797,0,-0.1903,-0.1895,-0.1891,-0.1878,-0.1875,-0.1872,-0.1864,-0.1859,-0.1849,-0.1843,-0.1837,-0.1827,-0.1823,-0.1816,-0.1811,-0.1808,-0.1805,-0.18,-0.18,-0.1799,-0.1791,-0.1804,-0.1822,-0.1823,-0.1799,-0.1799,-0.1799,0,-0.1919,-0.1907,-0.1903,-0.1898,-0.1883,-0.1882,-0.1875,-0.1865,-0.186,-0.1853,-0.185,-0.1842,-0.1838,-0.1832,-0.1821,-0.1817,-0.1818,-0.1809,-0.1814,-0.1814,-0.1815,-0.1815,-0.1833,-0.1812,-0.1812,-0.1812,-0.1812,0,-0.1929,-0.1927,-0.191,-0.1908,-0.1906,-0.1893,-0.1891,-0.1883,-0.1875,-0.1871,-0.1859,-0.1856,-0.1842,-0.1837,-0.1829,-0.1827,-0.1825,-0.182,-0.1818,-0.1822,-0.1822,-0.182,-0.1819,-0.1812,-0.1812,-0.1812,-0.1812,0,-0.1946,-0.1934,-0.193,-0.1916,-0.1912,-0.1911,-0.1899,-0.1897,-0.1889,-0.1885,-0.1883,-0.187,-0.1864,-0.1852,-0.1843,-0.1838,-0.1838,-0.1833,-0.1841,-0.184,-0.1845,-0.1845,-0.1862,-0.1864,-0.1842,-0.1842,-0.1842,0,-0.1954,-0.1952,-0.1938,-0.1935,-0.1929,-0.1924,-0.1919,-0.1907,-0.1903,-0.1892,-0.1891,-0.1885,-0.1879,-0.1871,-0.186,-0.1854,-0.185,-0.1856,-0.1849,-0.1853,-0.1851,-0.1851,-0.1851,-0.1858,-0.1858,-0.1859,-0.1859,0,-0.1968,-0.1963,-0.1957,-0.1949,-0.1945,-0.1938,-0.1931,-0.1929,-0.1915,-0.1911,-0.1905,-0.1901,-0.1892,-0.1886,-0.1878,-0.1872,-0.1863,-0.1861,-0.1862,-0.1866,-0.1871,-0.1869,-0.1846,-0.1861,-0.1861,-0.1861,-0.1861,-0.186,-0.1981,-0.198,-0.197,-0.1964,-0.1957,-0.1951,-0.1949,-0.194,-0.1935,-0.1927,-0.192,-0.1915,-0.1906,-0.1895,-0.1889,-0.1886,-0.1881,-0.1882,-0.1882,-0.1883,-0.1885,-0.1871,-0.1884,-0.1884,-0.1884,-0.1884,-0.1884,0,-0.1996,-0.1989,-0.1984,-0.1975,-0.197,-0.1963,-0.1955,-0.1952,-0.1947,-0.194,-0.1934,-0.1928,-0.1923,-0.1913,-0.1906,-0.1905,-0.1901,-0.1904,-0.1904,-0.1903,-0.1889,-0.1889,-0.1908,-0.1908,-0.1908,-0.1908,-0.1908,-0.1908,-0.2003,-0.2001,-0.1994,-0.1988,-0.1982,-0.1977,-0.1973,-0.1968,-0.1962,-0.1955,-0.1951,-0.1944,-0.1936,-0.1929,-0.1924,-0.1921,-0.1919,-0.1924,-0.192,-0.1906,-0.1904,-0.1902,-0.1902,-0.1923,-0.1923,-0.1935,-0.1935,-0.1935]},{"header":{"parameterUnit":"m.s-1","parameterCategory":1,"la1":30.2991,"la2":30.254,"lo1":-89.0895,"lo2":-89.0444,"dy":0.0017,"dx":0.0017,"nx":28,"ny":28,"refTime":"2024-03-11T09:00:00:Z","depth":0,"parameterNumber":3,"parameterNumberName":"V-component_of_WINDS"},"data":[0,0,0,0,0,0,0,0,0,0,0,0,0,0,0,0,0,0,0,0,0,0,0,0,0,0,0,0,0,0,0,0,0,0,0,0,0,0,0,0,0,0,0,0,0,0,0,0,0,0,0,0,0,0,0,0,0,0,3.2398,3.2398,0,3.2434,3.2435,3.2435,3.24,3.2398,3.2397,3.2395,3.2431,3.2433,3.2435,0,0,0,0,0,0,0,0,0,0,0,0,0,3.2295,3.2297,3.2398,3.2399,3.2399,3.2434,3.2435,3.2435,3.24,3.2398,3.2396,3.2395,3.243,3.2433,3.2435,0,0,0,0,0,0,0,0,0,0,0,0,0,3.2337,3.2298,3.2398,3.2386,3.2385,3.2434,3.2435,3.2435,3.24,3.2398,3.2396,3.2394,3.2429,3.2432,3.2436,3.2498,0,0,3.2446,3.2447,0,0,0,0,0,0,0,0,3.2334,3.234,3.2387,3.2387,3.2386,3.241,3.2411,3.2456,3.2401,3.2394,3.2395,3.2393,3.2425,3.2429,3.244,3.25,3.2502,3.2446,3.2448,3.245,3.2451,0,0,0,0,0,0,0,3.2331,3.2339,3.2412,3.2388,3.2387,3.2377,3.2381,3.242,3.2421,3.2395,3.2392,3.2397,3.2425,3.2437,3.2441,3.2502,3.2446,3.2449,3.2451,3.2453,3.2612,3.2614,0,0,0,0,0,0,3.233,3.2336,3.2411,3.2413,3.2354,3.2381,3.2385,3.2404,3.2421,3.2421,3.2399,3.2395,3.2432,3.2437,3.2442,3.2514,3.245,3.2453,3.2455,3.261,3.2613,3.2615,0,0,0,0,0,0,3.2328,3.2337,3.241,3.2374,3.2383,3.2385,3.2407,3.2406,3.2419,3.2424,3.2424,3.2411,3.2431,3.2437,3.2484,3.2515,3.2454,3.2457,3.2607,3.2611,3.2614,3.2661,0,0,0,0,0,0,3.2325,3.2337,3.2361,3.2375,3.2385,3.2452,3.2409,3.2409,3.2425,3.242,3.2436,3.2436,3.243,3.2479,3.2488,3.2519,3.246,3.2605,3.2609,3.2613,3.2656,3.2665,3.2673,0,0,0,0,0,3.2322,3.2374,3.2363,3.2372,3.2416,3.2454,3.246,3.2452,3.2428,3.2451,3.2454,3.2436,3.2511,3.2484,3.2493,3.2526,3.2603,3.2608,3.2613,3.2653,3.2663,3.2673,0,0,0,0,0,0,3.2363,3.2375,3.2363,3.2421,3.2437,3.2448,3.2478,3.2464,3.2487,3.2482,3.2471,3.2474,3.2523,3.253,3.25,3.2586,3.2552,3.256,3.258,3.259,3.2598,3.2595,3.2463,0,0,0,0,0,3.2379,3.241,3.2419,3.2469,3.2477,3.2477,3.2493,3.2486,3.2501,3.2507,3.2514,3.2529,3.2556,3.2574,3.2599,3.2658,3.2659,3.2684,3.2693,3.2699,3.2705,3.2734,3.2744,3.2631,3.2631,3.2631,0,0,3.2412,3.2423,3.2443,3.2477,3.2488,3.2519,3.2482,3.2517,3.2539,3.2513,3.2556,3.2562,3.2578,3.263,3.2654,3.2637,3.2736,3.2706,3.2711,3.2713,3.274,3.275,3.276,3.2635,3.2634,3.2634,0,0,3.2488,3.25,3.2541,3.2553,3.2571,3.257,3.258,3.2593,3.2595,3.264,3.2619,3.2645,3.2693,3.2704,3.2716,3.2794,3.2777,3.2803,3.2845,3.2873,3.2882,3.289,3.2915,3.2925,3.2809,3.2809,3.2809,0,3.2526,3.2573,3.2565,3.26,3.2615,3.2592,3.2633,3.2645,3.267,3.268,3.2661,3.2718,3.2728,3.2781,3.28,3.2812,3.2821,3.28,3.2882,3.2889,3.2896,3.2921,3.293,3.2812,3.2812,3.2811,3.2811,0,3.2618,3.2651,3.2682,3.2706,3.2724,3.2763,3.2759,3.2778,3.2769,3.277,3.2814,3.2824,3.285,3.2863,3.2855,3.2914,3.2903,3.2884,3.2849,3.291,3.2932,3.2942,3.2816,3.2815,3.2814,3.2813,0,0,3.2721,3.2739,3.275,3.2759,3.2776,3.2801,3.2837,3.2863,3.2878,3.2896,3.2925,3.2965,3.2946,3.2959,3.2952,3.2977,3.3035,3.2954,3.2954,3.2967,3.3099,3.3112,3.3123,3.3025,3.3027,3.3028,3.3097,0,3.2794,3.2858,3.2851,3.2911,3.2939,3.2917,3.2949,3.2962,3.2963,3.2987,3.2988,3.3015,3.299,3.2997,3.3022,3.3023,3.3061,3.3019,3.3049,3.3051,3.3044,3.3135,3.315,3.3215,3.3106,3.3108,3.3109,0,3.2889,3.291,3.2972,3.2983,3.2994,3.3023,3.3044,3.3068,3.3081,3.308,3.3095,3.3083,3.3118,3.3084,3.3131,3.3102,3.3114,3.3117,3.3119,3.312,3.3082,3.3136,3.3235,3.3244,3.3123,3.3122,3.3121,0,3.2954,3.2998,3.304,3.3049,3.3063,3.3083,3.309,3.3102,3.3117,3.3135,3.3144,3.3167,3.3179,3.3196,3.319,3.3166,3.3237,3.3203,3.3235,3.3235,3.325,3.3248,3.3349,3.3262,3.3261,3.3261,3.3261,0,3.3036,3.3075,3.3069,3.3095,3.3137,3.3128,3.3169,3.3173,3.3184,3.3209,3.3192,3.3216,3.3207,3.323,3.3226,3.3263,3.327,3.3268,3.3266,3.3269,3.3268,3.3275,3.3269,3.3264,3.3263,3.3263,3.3262,0,3.3116,3.3114,3.3158,3.3167,3.317,3.3201,3.3208,3.3231,3.3231,3.3263,3.327,3.3269,3.3295,3.3291,3.332,3.3317,3.3364,3.3357,3.3359,3.3357,3.3388,3.3384,3.3495,3.3508,3.3414,3.3415,3.3415,0,3.3167,3.3196,3.3208,3.3224,3.3232,3.3258,3.3272,3.3264,3.328,3.3297,3.3318,3.3342,3.3361,3.3404,3.3405,3.3427,3.3419,3.3457,3.3422,3.3423,3.3417,3.3414,3.3416,3.3463,3.3464,3.3465,3.3465,0,3.3258,3.3255,3.3277,3.3299,3.3316,3.3333,3.3348,3.3361,3.3354,3.3373,3.3399,3.3414,3.3443,3.3467,3.3486,3.3492,3.3477,3.3476,3.3484,3.3486,3.3485,3.3483,3.3375,3.3473,3.3473,3.3472,3.3472,3.3471,3.3323,3.3347,3.3358,3.3383,3.3393,3.3407,3.3429,3.3431,3.3453,3.3475,3.3469,3.3498,3.351,3.3535,3.3543,3.3564,3.355,3.3563,3.3565,3.3568,3.357,3.3483,3.3568,3.3568,3.3568,3.3568,3.3567,0,3.3411,3.3417,3.344,3.346,3.3479,3.3464,3.3479,3.3495,3.3521,3.3533,3.3552,3.3581,3.3603,3.3606,3.3627,3.3644,3.3637,3.365,3.3647,3.3648,3.3583,3.3573,3.3654,3.3654,3.3654,3.3654,3.3654,3.3654,3.3458,3.3497,3.3495,3.3538,3.3543,3.3571,3.3581,3.3593,3.3602,3.3635,3.3654,3.3656,3.3663,3.3684,3.3704,3.3704,3.3712,3.3726,3.3723,3.3662,3.3653,3.3645,3.3635,3.3728,3.3728,3.3786,3.3787,3.3787]}]]